GFSSE_sfc_temp_336.txt.gz
Temp
61 65 72 73 74 74 73 73 73 73 73 73 72 72 72 72 72 72 72 72 72 74 74 74 74 74 74 74 75 75 76 75 74 75 76 76 75 75 74 74 73 70 75
63 66 71 73 74 73 73 72 72 72 72 72 72 71 71 71 71 71 70 70 71 72 73 74 74 74 73 73 73 74 75 74 73 73 73 74 74 75 75 74 73 71 75
65 68 70 72 73 73 72 72 72 72 71 71 71 70 70 70 70 70 70 70 70 71 72 72 73 73 73 72 72 72 73 73 72 72 72 67 68 75 75 73 73 75 75
65 69 69 71 72 72 71 71 71 71 71 70 70 70 69 69 69 69 69 69 69 70 71 71 71 72 73 72 71 71 72 72 72 71 68 67 68 74 75 74 74 75 75
63 68 68 70 71 71 71 71 70 70 70 70 69 69 69 68 68 68 68 68 68 69 69 70 70 70 70 71 71 71 70 70 70 69 66 65 65 71 74 75 75 75 74
61 63 67 70 71 71 70 70 70 70 69 69 68 68 68 68 67 67 67 67 67 67 68 68 68 68 68 69 69 70 69 68 67 65 64 66 66 71 74 74 73 73 72
59 61 64 69 70 70 70 70 69 69 68 68 67 67 67 67 66 67 66 67 67 67 67 67 67 67 67 67 68 68 68 67 65 62 63 64 65 71 75 73 72 73 73
59 60 63 65 68 69 69 69 68 68 67 66 66 66 66 65 65 66 65 65 66 66 67 66 66 66 66 66 66 67 66 64 62 63 62 63 66 71 74 73 72 70 69
59 59 58 60 63 65 66 66 67 66 66 65 65 64 63 63 63 63 63 63 65 65 65 65 65 65 65 66 66 65 64 63 58 59 64 63 66 70 74 74 70 70 70
56 56 56 56 56 56 57 63 63 64 64 64 63 61 60 58 59 59 59 60 63 63 64 64 64 65 64 64 63 64 62 62 56 57 62 63 66 70 72 72 68 67 67
55 55 54 54 53 53 54 57 60 62 62 60 58 58 53 49 49 51 55 59 60 61 62 62 63 62 61 59 60 61 61 54 53 55 58 63 66 70 72 70 68 68 69
52 52 53 52 52 52 58 52 51 54 51 51 50 49 49 47 48 52 51 55 56 57 58 60 60 59 56 51 51 56 52 53 53 53 56 63 66 69 71 70 70 70 69
52 53 52 52 51 51 52 49 48 48 48 48 48 48 47 47 46 46 45 46 46 51 48 50 50 50 50 50 51 51 52 52 52 53 56 62 66 68 71 71 70 70 69
52 53 52 52 51 50 49 48 48 48 47 46 47 47 45 44 44 44 44 44 45 46 47 48 48 49 50 51 51 51 52 52 53 54 54 59 64 67 71 72 71 68 69
52 53 52 51 51 51 49 47 48 47 46 46 45 47 46 44 43 44 44 45 45 47 47 47 48 49 49 50 51 51 52 53 55 55 55 57 61 65 69 72 71 69 68
53 53 52 52 51 50 48 48 47 46 46 45 44 46 47 45 44 44 44 45 46 47 47 47 48 48 49 50 51 52 54 56 58 57 56 56 58 62 66 72 71 68 68
54 53 52 51 51 50 50 48 47 47 46 44 45 46 47 47 45 45 45 46 47 48 50 50 50 49 52 53 51 55 54 54 56 56 58 57 59 59 61 70 69 68 68
53 53 52 54 50 49 48 47 47 45 44 44 44 45 47 48 47 46 46 46 47 52 53 53 54 53 52 52 53 53 54 55 59 58 61 60 57 58 61 67 67 68 68
53 51 50 50 49 48 47 46 45 44 44 44 44 45 46 48 48 46 46 47 49 51 52 53 54 50 51 52 52 52 52 53 55 58 58 59 59 59 60 62 63 65 68
50 50 49 48 47 47 45 44 43 43 43 44 44 45 47 47 48 47 47 47 47 48 52 53 53 53 52 51 52 51 51 51 52 54 57 58 59 61 62 62 62 62 65
47 48 48 47 45 45 43 42 42 42 42 43 44 47 47 47 48 47 46 46 47 50 51 53 53 52 52 53 51 51 51 51 50 51 54 56 56 58 59 59 60 63 64
46 47 46 46 45 45 44 42 42 42 42 43 44 46 47 47 47 48 46 46 49 50 51 52 53 51 52 51 49 49 46 49 50 50 51 53 55 57 58 58 59 61 62
45 46 46 46 45 45 44 42 42 43 42 43 43 44 45 47 47 47 47 47 51 51 51 52 52 52 50 50 49 48 46 43 46 49 48 50 51 53 56 58 59 59 59
44 45 46 45 45 44 43 43 43 41 41 42 42 43 44 46 46 47 47 47 50 51 51 52 54 52 49 46 49 50 47 47 45 44 48 48 49 49 51 57 58 58 57
44 44 44 44 44 43 42 43 42 41 41 41 42 43 43 44 46 46 46 46 49 51 52 52 53 50 48 47 47 48 47 46 49 47 43 46 47 47 49 53 56 56 57
42 42 42 42 42 42 42 42 42 41 41 41 41 41 42 43 44 45 46 46 49 51 51 52 54 48 47 48 49 50 46 47 45 45 44 43 43 45 46 49 52 53 53

GFSSE_sfc_temp_339.txt.gz
Temp
69 72 73 74 74 74 74 73 73 73 73 73 72 72 72 72 72 71 71 72 72 73 74 75 75 74 74 74 74 75 75 75 75 75 75 76 76 76 75 74 74 76 75
70 72 72 74 74 73 73 73 72 72 72 72 71 71 71 71 71 71 71 71 71 72 73 73 74 74 73 73 73 73 74 74 74 73 73 74 74 75 75 74 73 76 75
69 72 72 73 73 73 72 72 72 72 72 71 71 71 70 70 70 70 70 70 70 71 72 72 72 72 72 72 72 72 72 73 73 72 72 77 77 74 75 74 74 75 75
69 72 70 71 72 72 72 71 71 71 71 70 70 70 69 69 69 69 69 69 69 70 70 71 71 71 71 71 71 71 71 71 71 71 75 75 75 75 75 74 74 75 75
69 71 69 70 72 72 71 71 71 70 70 70 69 69 69 69 68 68 68 68 68 69 69 70 70 70 69 69 70 71 71 70 68 70 75 74 73 74 75 74 75 75 74
67 70 69 70 71 71 71 70 70 70 69 69 68 68 68 68 68 68 67 68 68 68 68 69 69 68 68 68 68 69 70 69 67 71 72 72 73 72 75 74 73 74 72
65 68 69 70 70 70 70 70 70 69 68 68 68 67 67 67 67 67 67 67 67 67 67 67 67 67 67 67 67 67 67 67 67 68 70 71 72 72 75 74 72 73 73
64 65 68 66 68 69 69 69 69 68 67 67 66 66 65 65 65 65 65 65 66 66 66 66 66 66 66 66 66 66 66 65 66 65 65 68 69 70 73 74 72 73 74
64 64 64 66 66 65 66 67 67 67 66 65 65 64 63 62 62 62 62 63 64 65 65 65 65 65 65 65 65 65 64 63 65 66 64 65 66 69 72 73 72 73 72
61 61 61 62 62 63 64 63 64 64 64 63 62 60 58 57 58 58 58 60 62 63 63 63 63 64 63 62 62 62 62 62 64 63 65 64 65 68 71 73 72 67 69
59 59 59 59 60 60 60 61 61 61 61 59 58 57 55 56 55 56 56 58 60 60 61 62 62 62 60 59 59 59 60 63 62 62 63 62 65 68 70 72 69 69 69
56 57 58 58 58 58 61 58 57 57 56 56 56 55 55 55 54 55 53 55 55 56 57 59 59 58 57 59 60 59 62 61 61 62 62 61 65 68 70 71 70 70 69
57 57 57 57 56 57 57 56 56 55 54 55 54 54 54 54 54 54 54 55 55 54 56 57 57 58 57 58 59 60 60 61 60 60 61 60 64 68 70 70 71 70 68
56 57 56 56 56 55 55 55 55 54 54 54 54 53 54 53 52 53 53 53 53 55 55 55 56 56 57 57 57 58 60 60 60 61 61 58 62 67 69 71 71 70 70
55 56 56 55 55 55 54 54 54 53 54 53 53 53 53 52 52 52 53 54 54 55 55 55 56 56 56 56 57 57 58 60 61 61 62 56 59 65 68 70 72 70 69
56 56 55 55 55 54 53 53 52 52 52 53 53 53 53 53 52 52 53 54 55 55 56 55 54 54 55 55 57 57 56 60 63 63 63 63 56 62 66 69 71 67 68
57 56 54 54 54 54 53 53 51 52 52 52 52 53 53 53 53 52 52 54 55 55 56 55 55 57 58 57 57 57 56 58 62 62 60 62 64 59 60 65 69 68 68
56 55 54 56 53 52 52 51 51 51 51 51 52 53 52 53 53 53 53 53 54 56 57 55 56 56 56 56 55 54 55 59 60 61 62 62 63 65 62 66 65 66 68
57 54 53 53 52 51 50 49 49 50 51 51 52 52 52 53 53 53 52 53 54 54 56 55 56 55 54 53 53 53 53 53 55 57 59 60 63 63 67 63 62 64 67
55 55 53 52 50 49 48 47 48 49 49 50 51 52 52 53 53 53 53 53 52 54 55 56 56 57 53 53 53 52 52 52 53 53 56 58 60 62 66 64 62 61 64
51 52 51 50 48 48 47 47 48 49 48 49 50 51 52 52 52 52 53 52 52 52 54 56 56 54 53 53 52 53 52 53 51 52 53 56 58 60 61 61 61 62 63
50 51 50 50 48 48 48 47 48 47 47 49 50 51 51 52 52 53 51 52 52 52 54 55 55 54 54 54 49 53 49 51 51 50 51 53 56 58 58 60 61 61 61
48 49 50 49 48 48 47 46 46 47 47 48 49 50 50 51 51 51 51 52 52 53 53 54 55 54 52 54 52 51 50 46 47 50 49 50 52 54 58 58 58 59 60
47 48 49 48 47 47 46 47 47 47 46 47 48 48 49 50 50 51 51 51 52 53 54 54 56 54 53 51 53 53 51 54 46 45 49 48 49 50 57 57 56 57 57
47 47 47 47 46 46 46 47 46 46 46 47 47 48 48 49 50 50 51 51 51 53 54 55 55 54 53 53 52 53 52 50 53 49 43 46 48 47 52 55 56 56 56
45 45 45 46 45 45 45 45 46 46 45 45 46 47 47 48 49 49 50 50 51 53 54 55 55 53 53 53 54 53 53 53 48 49 44 43 43 45 46 50 52 53 53

GFSSE_sfc_temp_342.txt.gz
Temp
78 82 74 75 75 74 74 73 73 73 73 73 72 72 72 72 72 71 71 72 72 73 74 74 75 74 74 74 74 74 74 75 75 75 75 75 75 75 76 74 74 80 76
80 81 72 74 73 74 73 73 73 72 72 72 72 71 71 71 71 71 70 71 71 72 73 73 73 73 73 73 72 73 73 74 73 74 74 73 74 75 75 74 74 80 75
79 80 75 73 73 73 72 72 72 72 72 71 71 71 70 70 70 70 70 70 70 71 72 72 72 72 72 72 72 72 72 72 72 72 72 79 79 74 74 74 74 75 75
80 78 74 71 72 72 72 72 71 71 71 71 70 70 70 70 69 69 69 69 69 70 70 71 71 71 70 70 70 71 71 70 69 69 78 81 79 75 75 74 74 75 75
78 75 72 71 72 72 71 71 71 71 70 70 70 69 69 69 69 69 69 69 69 69 69 70 70 69 69 69 69 69 70 70 68 70 79 79 80 78 75 74 75 75 74
77 74 71 71 72 71 71 71 70 70 70 69 69 69 69 68 68 68 68 68 68 68 68 69 68 68 68 68 68 68 68 69 66 74 76 76 78 77 75 74 74 73 73
76 74 72 70 71 71 71 70 70 69 69 68 68 68 67 67 66 66 66 66 67 67 67 68 67 67 67 67 67 67 67 66 70 70 69 73 75 75 74 74 72 72 73
75 73 73 67 68 69 70 69 69 68 68 67 66 66 65 65 64 64 64 65 65 66 66 66 66 66 66 66 66 66 66 65 69 73 70 67 69 70 73 74 73 72 72
74 73 74 73 70 66 67 67 67 67 66 65 64 63 62 61 61 61 61 63 64 64 64 64 64 65 65 64 64 63 63 63 68 72 73 71 66 68 71 73 73 72 73
72 72 72 72 73 72 70 63 64 64 64 63 61 59 59 60 59 58 60 61 62 62 63 63 63 63 63 62 62 61 61 61 68 70 71 73 65 68 70 72 72 72 72
69 70 71 71 71 71 71 65 62 61 60 60 61 57 63 66 64 64 58 58 59 60 61 61 61 61 60 61 61 60 59 69 70 70 71 66 65 68 70 71 71 70 68
66 67 70 70 69 70 69 68 67 66 67 66 65 64 65 64 62 61 58 56 58 57 60 60 60 60 61 67 68 64 68 68 68 69 71 64 64 67 70 71 71 69 68
68 67 67 68 69 69 68 68 69 68 67 67 64 64 63 64 64 65 65 64 64 60 65 64 65 65 64 65 66 67 67 67 69 69 68 62 63 67 70 71 71 69 69
67 67 67 67 67 67 68 68 68 67 66 67 65 62 64 64 63 63 63 63 63 64 63 64 64 64 64 64 64 65 66 67 68 69 68 60 61 66 69 71 71 71 70
66 66 66 66 67 66 65 66 66 65 66 66 65 62 63 63 62 63 62 64 64 64 64 63 63 63 63 60 64 64 62 65 68 69 70 58 59 63 68 70 71 71 70
67 66 66 65 66 65 65 64 64 64 64 65 65 63 62 63 62 62 62 63 64 64 64 60 62 63 61 60 62 60 61 63 67 66 63 67 57 62 66 69 71 71 68
67 67 64 65 64 64 64 64 63 62 63 64 64 62 61 62 62 61 62 63 63 64 64 62 64 64 63 64 61 57 59 64 65 64 62 63 67 57 59 64 69 66 67
68 66 65 64 62 63 62 62 63 61 63 63 64 64 61 61 61 62 62 62 63 64 64 62 63 61 61 58 56 56 57 62 61 61 63 64 66 71 62 66 65 68 68
68 66 64 63 61 60 61 60 60 60 62 62 63 63 61 61 60 62 62 62 59 62 64 62 61 60 58 56 55 55 55 55 56 57 61 65 67 71 69 63 63 64 67
69 67 64 63 61 59 58 57 58 58 60 62 63 63 60 61 60 62 62 61 58 62 63 62 61 61 56 55 55 55 54 54 54 55 57 61 67 68 67 64 62 61 62
66 65 63 60 59 58 57 56 56 57 58 59 60 58 60 60 60 61 62 62 58 60 61 61 62 59 60 60 55 55 54 55 53 53 55 58 60 65 61 61 63 62 63
63 63 60 60 58 59 59 58 59 58 58 60 59 58 59 60 59 60 60 60 57 57 58 60 61 60 60 59 56 58 53 53 53 51 52 54 58 59 59 61 61 61 62
59 60 59 59 58 58 59 56 55 55 55 56 57 59 58 59 58 58 59 59 58 56 57 60 59 58 57 59 59 56 53 47 48 50 50 51 57 56 58 59 59 59 60
59 61 60 58 57 58 58 57 57 57 55 57 58 59 58 58 58 58 58 59 59 57 57 60 60 60 59 58 61 59 58 56 47 46 50 50 52 55 55 56 56 56 57
57 58 58 57 57 57 57 58 57 56 57 57 57 56 57 57 57 57 58 59 57 56 57 60 60 60 60 60 61 58 58 58 56 51 44 49 49 49 54 55 55 55 56
56 56 56 56 57 57 56 56 57 56 55 55 55 56 57 58 58 57 57 58 58 56 57 57 58 59 60 60 62 62 61 58 55 49 45 45 45 45 48 51 51 52 53

GFSSE_sfc_temp_345.txt.gz
Temp
82 80 74 75 75 75 74 73 73 73 73 72 72 72 72 72 72 71 71 72 72 73 74 74 74 74 74 73 73 74 74 74 75 75 76 76 76 75 75 75 74 78 76
85 82 73 74 74 74 73 73 73 72 72 72 72 71 71 71 71 71 71 71 71 72 73 73 73 73 73 72 72 72 73 72 73 74 74 74 75 75 75 74 74 78 76
84 79 76 73 73 73 72 72 72 72 72 71 71 71 71 70 70 70 70 70 70 71 71 72 72 72 71 71 71 72 72 71 70 71 72 78 78 75 75 74 74 76 75
84 78 75 71 72 72 72 72 71 71 71 71 70 70 70 70 70 70 69 69 69 70 71 71 71 71 70 70 70 70 70 70 69 69 75 79 78 75 75 75 75 76 75
81 77 73 71 72 72 72 71 71 71 70 70 70 70 69 69 69 69 69 68 69 69 70 70 70 69 69 69 69 69 69 69 68 69 77 76 75 77 75 74 75 75 74
76 76 71 71 72 71 71 71 70 70 69 69 69 69 68 68 68 67 67 67 68 68 68 69 69 68 68 68 68 68 68 68 66 73 71 72 73 76 75 74 75 73 73
78 74 72 70 71 71 71 70 70 69 69 68 68 67 67 66 66 66 66 66 67 67 67 67 67 67 67 67 67 67 67 66 68 73 74 70 71 74 74 75 73 73 73
78 72 72 67 69 70 70 69 69 68 68 67 66 65 65 64 64 64 64 65 65 65 65 66 66 66 66 66 66 65 65 63 67 72 74 72 69 69 72 74 73 72 72
78 74 73 74 70 66 67 67 67 67 66 65 63 63 62 62 62 61 62 63 64 64 64 64 64 64 64 64 64 63 62 62 64 69 74 75 69 69 71 73 73 72 72
76 76 75 75 73 72 70 63 64 64 64 62 61 60 60 62 62 60 62 61 62 62 63 63 63 63 63 63 62 62 61 61 65 68 71 73 68 68 70 72 72 71 71
73 75 75 74 74 74 72 65 62 61 61 61 62 59 64 68 67 66 59 59 60 61 62 62 62 62 61 61 62 62 60 66 70 70 71 69 68 68 69 71 71 71 71
70 72 73 73 73 73 73 70 70 68 70 69 68 67 67 67 65 63 60 59 60 60 63 64 64 63 63 67 68 64 68 69 68 69 70 66 66 68 69 71 71 71 71
72 71 72 72 72 72 72 71 71 70 69 69 67 66 66 67 66 67 66 66 65 62 66 65 66 66 65 65 66 67 68 68 68 69 69 64 65 66 69 70 70 71 70
71 71 71 72 71 71 71 70 71 70 69 68 66 65 65 65 64 65 65 66 65 66 63 61 63 64 64 64 64 66 66 64 69 69 68 62 63 65 68 70 70 70 70
70 71 70 70 70 70 69 70 70 69 69 67 67 65 65 64 63 64 64 65 65 66 63 64 62 61 61 63 61 63 63 64 65 65 68 59 61 63 66 70 71 70 71
71 70 70 69 70 69 68 68 68 68 66 67 66 65 64 64 63 64 64 65 65 64 64 64 64 63 62 62 61 61 61 63 65 64 62 64 59 61 65 68 70 71 71
71 71 68 68 68 67 68 67 67 65 65 65 65 64 64 64 64 63 64 63 61 62 64 64 65 64 63 62 60 59 58 62 61 61 61 65 62 59 63 65 70 71 70
72 70 69 68 66 66 66 66 66 64 65 64 65 65 63 63 64 64 63 60 63 63 64 63 62 60 61 60 57 56 57 58 57 59 62 63 66 67 60 65 66 66 66
73 70 67 66 64 64 64 64 63 63 63 64 65 64 63 63 63 64 62 60 62 62 64 62 60 61 59 58 57 55 55 54 55 58 59 62 68 69 66 63 63 64 66
73 71 68 66 65 63 62 61 61 61 61 63 64 63 62 63 63 63 63 62 61 61 63 63 60 61 61 58 58 54 54 54 54 54 57 62 65 66 64 63 63 61 64
71 69 67 65 63 61 59 58 58 59 60 60 62 60 62 62 62 63 63 62 61 61 62 62 61 61 59 61 57 54 54 55 53 53 55 60 60 61 61 61 61 61 62
69 68 66 64 61 61 61 61 62 62 61 61 60 60 62 62 61 62 61 62 60 60 61 60 58 59 59 61 54 57 54 53 53 52 54 57 58 59 59 61 61 61 61
67 67 64 63 61 62 62 59 59 59 58 57 57 59 60 61 61 60 61 61 60 60 60 60 57 60 56 61 60 54 51 46 48 51 51 55 56 57 57 58 57 59 62
66 66 64 62 61 61 61 59 58 59 56 58 59 61 60 60 60 60 61 61 58 59 60 60 59 60 59 58 62 60 57 55 47 46 50 52 55 54 56 56 56 57 58
64 63 63 61 61 61 60 62 60 60 60 59 59 58 59 59 60 60 60 61 59 59 60 59 58 61 61 60 60 59 57 54 52 49 46 48 50 52 54 55 55 55 57
62 61 61 60 59 60 60 61 60 59 58 57 57 58 59 59 59 59 60 60 59 58 59 59 59 61 61 61 61 60 60 54 52 49 45 44 45 46 48 52 52 52 52